Location: Roland
(31.1349°N, 85.4372°W)
Time: 18:10:53
(UTC+00:00)

SR - Pass Details

Date: 23 April 2021
Orbit: 573 x 882 km, 66.7° (Epoch: 12 May)

Event Time Altitude Azimuth Distance (km) Brightness Sun altitude
Rises 12:19:37 0° 223° (SW) 3,243 ? 14.9°
Reaches altitude 10° 12:22:04 10° 230° (SW) 2,364 ? 15.4°
Maximum altitude 12:27:14 42° 300° (WNW) 1,186 ? 16.5°
Drops below altitude 10° 12:32:45 10° 11° (N) 2,514 ? 17.7°
Sets 12:35:26 0° 18° (NNE) 3,473 ? 18.3°
